Volver al catálogo

COSMOS 711

ActivoMilitarLEO
NORAD 7678·PAYLOAD·🇷🇺 Russia

Lanzado Feb 28, 1975 desde Plesetsk Cosmodrome

Loading…

Próximos Pases (próximas 24 horas)

TLE

ActualizadoSource: Space-Track

Época: Sep 14, 2026, 13:46 UTC

1 07678U 75016A   26257.57396144 -.00000006  00000-0  66776-4 0  9991
2 07678  74.0032 301.2857 0019229 148.7244   5.6584 12.47086392346479

Sigue COSMOS 711 en tiempo real con AllMySat

Download on the App Store